• In Romania
  • List of Countries
  • For 7 days
  • Water Temperature
  • Satellite Maps
  • Weather Map
  • Weather Widgets
  • user-avatar
    Login

    Hourly Weather Propletkino

    Today, 25 April, Wednesday

    Time Temperature Precipitation Wind Pressure Humidity
    00:00 +6°C° 0.1 mm 2 mps 736 mmHg 95%
    01:00 +6°C° 0.1 mm 2 mps 736 mmHg 96%
    02:00 +6°C° 0.1 mm 2 mps 736 mmHg 96%
    03:00 +5°C° 0 mm 2 mps 735 mmHg 95%
    04:00 +5°C° 0 mm 2 mps 735 mmHg 94%
    05:00 +5°C° 0 mm 2 mps 735 mmHg 93%
    06:00 +5°C° 0.2 mm 3 mps 735 mmHg 90%
    07:00 +5°C° 0.2 mm 3 mps 735 mmHg 87%
    08:00 +6°C° 0.2 mm 4 mps 734 mmHg 84%
    09:00 +7°C° 0.2 mm 4 mps 734 mmHg 80%
    10:00 +8°C° 0.2 mm 4 mps 734 mmHg 77%
    11:00 +10°C° 0.2 mm 4 mps 734 mmHg 73%
    12:00 +9°C° 0.2 mm 5 mps 734 mmHg 68%
    13:00 +10°C° 0.2 mm 5 mps 734 mmHg 63%
    14:00 +12°C° 0.2 mm 5 mps 734 mmHg 58%
    15:00 +10°C° 0.1 mm 5 mps 734 mmHg 59%
    16:00 +11°C° 0.1 mm 4 mps 734 mmHg 59%
    17:00 +11°C° 0.1 mm 4 mps 734 mmHg 59%
    18:00 +10°C° 0 mm 3 mps 734 mmHg 65%
    19:00 +8°C° 0 mm 2 mps 733 mmHg 71%
    20:00 +7°C° 0 mm 2 mps 733 mmHg 77%
    21:00 +7°C° 0.1 mm 2 mps 733 mmHg 80%
    22:00 +7°C° 0.1 mm 2 mps 732 mmHg 83%
    23:00 +6°C° 0.1 mm 2 mps 732 mmHg 85%

    Tomorrow, 26 April, Thursday

    Time Temperature Precipitation Wind Pressure Humidity
    00:00 +7°C° 0.9 mm 2 mps 731 mmHg 88%
    01:00 +7°C° 0.9 mm 2 mps 730 mmHg 92%
    02:00 +7°C° 0.9 mm 2 mps 730 mmHg 95%
    03:00 +7°C° 0.3 mm 3 mps 729 mmHg 94%
    04:00 +8°C° 0.3 mm 3 mps 729 mmHg 94%
    05:00 +8°C° 0.3 mm 3 mps 729 mmHg 93%
    06:00 +7°C° 0.2 mm 4 mps 729 mmHg 91%
    07:00 +7°C° 0.2 mm 5 mps 729 mmHg 89%
    08:00 +7°C° 0.2 mm 5 mps 730 mmHg 87%
    09:00 +7°C° 0.2 mm 6 mps 731 mmHg 85%
    10:00 +5°C° 0.2 mm 6 mps 731 mmHg 83%
    11:00 +5°C° 0.2 mm 6 mps 732 mmHg 81%
    12:00 +7°C° 0.1 mm 6 mps 733 mmHg 75%
    13:00 +8°C° 0.1 mm 6 mps 734 mmHg 70%
    14:00 +9°C° 0.1 mm 6 mps 734 mmHg 64%
    15:00 +9°C° 0.2 mm 5 mps 735 mmHg 65%
    16:00 +9°C° 0.2 mm 5 mps 735 mmHg 65%
    17:00 +10°C° 0.2 mm 4 mps 735 mmHg 65%
    18:00 +8°C° 0 mm 4 mps 736 mmHg 71%
    19:00 +8°C° 0 mm 3 mps 736 mmHg 77%
    20:00 +6°C° 0 mm 2 mps 737 mmHg 83%
    21:00 +6°C° 0.2 mm 2 mps 737 mmHg 85%
    22:00 +5°C° 0.2 mm 3 mps 737 mmHg 87%
    23:00 +5°C° 0.2 mm 3 mps 738 mmHg 89%

    Day after tomorrow, 27 April, Friday

    Time Temperature Precipitation Wind Pressure Humidity
    00:00 +5°C° 0 mm 3 mps 738 mmHg 91%
    01:00 +4°C° 0 mm 3 mps 738 mmHg 93%
    02:00 +5°C° 0 mm 2 mps 738 mmHg 95%
    03:00 +4°C° 0 mm 2 mps 739 mmHg 95%
    04:00 +4°C° 0 mm 2 mps 739 mmHg 95%
    05:00 +4°C° 0 mm 2 mps 739 mmHg 95%
    06:00 +4°C° 0 mm 3 mps 740 mmHg 91%
    07:00 +5°C° 0 mm 3 mps 740 mmHg 87%
    08:00 +7°C° 0 mm 3 mps 740 mmHg 83%
    09:00 +8°C° 0 mm 3 mps 741 mmHg 75%
    10:00 +9°C° 0 mm 3 mps 741 mmHg 68%
    11:00 +11°C° 0 mm 3 mps 741 mmHg 60%
    12:00 +12°C° 0.1 mm 3 mps 741 mmHg 55%
    13:00 +12°C° 0.1 mm 4 mps 741 mmHg 51%
    14:00 +13°C° 0.1 mm 4 mps 741 mmHg 46%
    15:00 +13°C° 0.1 mm 3 mps 741 mmHg 48%
    16:00 +13°C° 0.1 mm 3 mps 741 mmHg 49%
    17:00 +13°C° 0.1 mm 3 mps 741 mmHg 51%
    18:00 +12°C° 0.2 mm 2 mps 741 mmHg 60%
    19:00 +9°C° 0.2 mm 2 mps 741 mmHg 68%
    20:00 +8°C° 0.2 mm 1 mps 741 mmHg 76%
    21:00 +8°C° 0.3 mm 1 mps 742 mmHg 80%
    22:00 +7°C° 0.3 mm 2 mps 742 mmHg 84%
    23:00 +6°C° 0.3 mm 2 mps 742 mmHg 88%

    28 April, Saturday

    Time Temperature Precipitation Wind Pressure Humidity
    00:00 +6°C° 0 mm 2 mps 743 mmHg 90%
    01:00 +5°C° 0 mm 2 mps 743 mmHg 92%
    02:00 +5°C° 0 mm 2 mps 743 mmHg 95%
    03:00 +4°C° 0 mm 2 mps 744 mmHg 95%
    04:00 +4°C° 0 mm 2 mps 744 mmHg 96%
    05:00 +3°C° 0 mm 2 mps 744 mmHg 97%
    06:00 +5°C° 0 mm 2 mps 745 mmHg 90%
    07:00 +6°C° 0 mm 2 mps 745 mmHg 82%
    08:00 +8°C° 0 mm 2 mps 745 mmHg 75%
    09:00 +9°C° 0 mm 3 mps 746 mmHg 68%
    10:00 +10°C° 0 mm 3 mps 746 mmHg 62%
    11:00 +11°C° 0 mm 3 mps 746 mmHg 55%
    12:00 +12°C° 0 mm 3 mps 746 mmHg 51%
    13:00 +13°C° 0 mm 3 mps 746 mmHg 47%
    14:00 +14°C° 0 mm 3 mps 746 mmHg 43%
    15:00 +14°C° 0 mm 3 mps 746 mmHg 43%
    16:00 +13°C° 0 mm 3 mps 746 mmHg 43%
    17:00 +13°C° 0 mm 3 mps 746 mmHg 43%
    18:00 +13°C° 0 mm 2 mps 746 mmHg 50%
    19:00 +10°C° 0 mm 2 mps 746 mmHg 57%
    20:00 +9°C° 0 mm 1 mps 746 mmHg 64%
    21:00 +9°C° 0 mm 1 mps 746 mmHg 66%
    22:00 +7°C° 0 mm 2 mps 746 mmHg 68%
    23:00 +7°C° 0 mm 2 mps 746 mmHg 70%

    29 April, Sunday

    Time Temperature Precipitation Wind Pressure Humidity
    00:00 +7°C° 0 mm 2 mps 746 mmHg 70%
    01:00 +8°C° 0 mm 3 mps 746 mmHg 69%
    02:00 +8°C° 0 mm 3 mps 745 mmHg 69%
    03:00 +7°C° 0.1 mm 4 mps 745 mmHg 70%
    04:00 +8°C° 0.1 mm 4 mps 744 mmHg 72%
    05:00 +8°C° 0.1 mm 4 mps 744 mmHg 73%
    06:00 +8°C° 0.3 mm 4 mps 743 mmHg 77%
    07:00 +10°C° 0.3 mm 4 mps 743 mmHg 80%
    08:00 +10°C° 0.3 mm 4 mps 743 mmHg 84%
    09:00 +12°C° 0.1 mm 4 mps 743 mmHg 81%
    10:00 +13°C° 0.1 mm 4 mps 743 mmHg 78%
    11:00 +15°C° 0.1 mm 4 mps 742 mmHg 74%
    12:00 +16°C° 0.1 mm 5 mps 742 mmHg 67%
    13:00 +17°C° 0.1 mm 5 mps 742 mmHg 61%
    14:00 +19°C° 0.1 mm 6 mps 742 mmHg 54%
    15:00 +17°C° 0 mm 5 mps 742 mmHg 51%
    16:00 +17°C° 0 mm 5 mps 742 mmHg 48%
    17:00 +18°C° 0 mm 4 mps 742 mmHg 46%
    18:00 +14°C° 0 mm 4 mps 743 mmHg 54%
    19:00 +12°C° 0 mm 3 mps 743 mmHg 63%
    20:00 +10°C° 0 mm 2 mps 744 mmHg 72%
    21:00 +9°C° 0 mm 2 mps 744 mmHg 76%
    22:00 +9°C° 0 mm 1 mps 745 mmHg 81%
    23:00 +8°C° 0 mm 1 mps 745 mmHg 85%

    30 April, Monday

    Time Temperature Precipitation Wind Pressure Humidity
    00:00 +8°C° 0 mm 1 mps 745 mmHg 88%
    01:00 +7°C° 0 mm 1 mps 745 mmHg 90%
    02:00 +6°C° 0 mm 0 mps 746 mmHg 92%
    03:00 +5°C° 0 mm 0 mps 746 mmHg 91%
    04:00 +5°C° 0 mm 0 mps 746 mmHg 91%
    05:00 +5°C° 0 mm 0 mps 746 mmHg 91%
    06:00 +8°C° 0 mm 0 mps 746 mmHg 82%
    07:00 +11°C° 0 mm 1 mps 747 mmHg 72%
    08:00 +13°C° 0 mm 1 mps 747 mmHg 63%
    09:00 +15°C° 0 mm 1 mps 747 mmHg 56%
    10:00 +18°C° 0 mm 1 mps 747 mmHg 49%
    11:00 +20°C° 0 mm 1 mps 746 mmHg 42%
    12:00 +21°C° 0 mm 1 mps 746 mmHg 39%
    13:00 +22°C° 0 mm 1 mps 746 mmHg 37%
    14:00 +22°C° 0 mm 1 mps 746 mmHg 34%
    15:00 +22°C° 0 mm 1 mps 745 mmHg 37%
    16:00 +21°C° 0 mm 2 mps 745 mmHg 40%
    17:00 +21°C° 0 mm 2 mps 744 mmHg 43%
    18:00 +19°C° 0 mm 2 mps 744 mmHg 52%
    19:00 +17°C° 0 mm 2 mps 744 mmHg 60%
    20:00 +15°C° 0 mm 2 mps 744 mmHg 68%
    21:00 +15°C° 0.1 mm 2 mps 744 mmHg 73%
    22:00 +13°C° 0.1 mm 3 mps 744 mmHg 77%
    23:00 +13°C° 0.1 mm 3 mps 743 mmHg 82%
    Show more